This is the latest recevied weather packets stored in our database for station/object W5CMS-13. If no packets are shown the sender has not sent any weather packets the latest 10 day(s).
| Time | Temp. | Humidity | Pressure | Rain* | Wind** | Luminosity | Snow |
|---|---|---|---|---|---|---|---|
| 1777098017 | 20° C | 89% | 1005.9 hPa | 0 mm | - | - | - |
| 1777097417 | 20° C | 88% | 1005.8 hPa | 0 mm | - | - | - |
| 1777096817 | 20° C | 87% | 1005.9 hPa | 0 mm | - | - | - |
| 1777096217 | 20° C | 87% | 1006 hPa | 0 mm | - | - | - |
| 1777095617 | 20° C | 86% | 1005.8 hPa | 0 mm | - | - | - |
| 1777095017 | 20.56° C | 85% | 1005.6 hPa | 0 mm | - | - | - |
| 1777094418 | 20.56° C | 84% | 1005.6 hPa | 0 mm | - | - | - |
| 1777093818 | 20.56° C | 84% | 1005.4 hPa | 0 mm | - | - | - |
| 1777093218 | 21.11° C | 83% | 1005.1 hPa | 0 mm | - | - | - |
| 1777092618 | 21.11° C | 82% | 1005.1 hPa | 0 mm | - | - | - |
| 1777092017 | 21.11° C | 81% | 1005.2 hPa | 0 mm | - | - | - |
| 1777091417 | 21.67° C | 80% | 1005.6 hPa | 0 mm | - | - | - |
| 1777090817 | 22.22° C | 77% | 1005.5 hPa | 0 mm | - | - | - |
| 1777090218 | 23.33° C | 74% | 1005.5 hPa | 0 mm | - | - | - |
| 1777089617 | 23.89° C | 69% | 1005.4 hPa | 0 mm | - | - | - |
| 1777089019 | 23.89° C | 62% | 1005 hPa | 0 mm | - | - | - |
| 1777088417 | 24.44° C | 60% | 1004.4 hPa | 0 mm | - | - | - |
| 1777087819 | 23.89° C | 60% | 1004 hPa | 0 mm | - | - | - |
| 1777087218 | 24.44° C | 59% | 1003.9 hPa | 0 mm | - | - | - |
| 1777086617 | 24.44° C | 60% | 1003.6 hPa | 0 mm | - | - | - |
| 1777086017 | 23.89° C | 61% | 1003.5 hPa | 0 mm | - | - | - |
| 1777085418 | 24.44° C | 61% | 1003.5 hPa | 0 mm | - | - | - |
| 1777084817 | 24.44° C | 59% | 1003.4 hPa | 0 mm | - | - | - |
| 1777084217 | 25° C | 58% | 1003.5 hPa | 0 mm | - | - | - |
| 1777083617 | 25° C | 58% | 1003.4 hPa | 0 mm | - | - | - |
* Rain latest hour (hover to see other rain measurements)
** Current wind speed in m/s (hover to see current wind gust speed)